05-01-2022, 00:00:04,    245,    0.0,   -1.1,   0.00,   0.00, 1005.0,   81.2, -999.0
05-01-2022, 00:00:14,    276,    0.5,   -1.3,   0.00,   0.00, 1005.1,   81.3, -999.0
05-01-2022, 00:00:24,    310,    1.3,   -1.0,   0.00,   0.00, 1005.2,   81.6, -999.0
05-01-2022, 00:00:34,    273,    0.8,   -1.1,   0.00,   0.00, 1005.1,   81.5, -999.0
05-01-2022, 00:00:44,    292,    0.8,   -1.0,   0.00,   0.00, 1005.1,   81.5, -999.0
05-01-2022, 00:00:54,    292,    0.1,   -1.1,   0.00,   0.00, 1005.1,   81.4, -999.0
05-01-2022, 00:01:04,    281,    0.4,   -1.1,   0.00,   0.00, 1005.1,   81.3, -999.0
05-01-2022, 00:01:14,    282,    0.0,   -1.2,   0.00,   0.00, 1005.1,   81.1, -999.0
05-01-2022, 00:01:23,    281,    0.4,   -1.0,   0.00,   0.00, 1005.2,   81.2, -999.0
05-01-2022, 00:01:35,    281,    0.0,   -1.1,   0.00,   0.00, 1005.1,   80.9, -999.0
05-01-2022, 00:01:44,    281,    0.0,   -1.1,   0.00,   0.00, 1005.1,   80.8, -999.0
05-01-2022, 00:01:53,    283,    0.4,   -1.0,   0.00,   0.00, 1005.1,   80.9, -999.0
05-01-2022, 00:02:03,    288,    1.7,   -1.1,   0.00,   0.00, 1005.2,   81.0, -999.0
05-01-2022, 00:02:14,    273,    1.7,   -1.0,   0.00,   0.00, 1005.2,   81.3, -999.0
05-01-2022, 00:02:23,    255,    0.5,   -1.0,   0.00,   0.00, 1005.2,   81.1, -999.0
05-01-2022, 00:02:33,    257,    0.1,   -1.0,   0.00,   0.00, 1005.1,   80.8, -999.0
05-01-2022, 00:02:43,    235,    0.3,   -1.0,   0.00,   0.00, 1005.2,   80.9, -999.0
05-01-2022, 00:02:53,    258,    2.0,   -0.9,   0.00,   0.00, 1005.3,   81.1, -999.0
05-01-2022, 00:03:03,    288,    1.3,   -0.9,   0.00,   0.00, 1005.2,   81.1, -999.0
05-01-2022, 00:03:13,    264,    0.8,   -0.9,   0.00,   0.00, 1005.2,   81.0, -999.0
05-01-2022, 00:03:23,    306,    0.3,   -0.9,   0.00,   0.00, 1005.2,   80.9, -999.0
05-01-2022, 00:03:33,    316,    1.0,   -0.9,   0.00,   0.00, 1005.3,   80.8, -999.0
05-01-2022, 00:03:43,    313,    1.7,   -0.9,   0.00,   0.00, 1005.2,   80.8, -999.0
05-01-2022, 00:03:53,    327,    1.1,   -0.8,   0.00,   0.00, 1005.2,   80.8, -999.0
05-01-2022, 00:04:03,    288,    0.6,   -0.8,   0.00,   0.00, 1005.2,   80.6, -999.0
05-01-2022, 00:04:13,    252,    1.4,   -0.8,   0.00,   0.00, 1005.2,   80.4, -999.0
05-01-2022, 00:04:23,    255,    1.5,   -0.8,   0.00,   0.00, 1005.2,   80.4, -999.0
05-01-2022, 00:04:32,    260,    1.5,   -0.8,   0.00,   0.00, 1005.2,   80.3, -999.0
05-01-2022, 00:04:43,    264,    0.4,   -0.8,   0.00,   0.00, 1005.2,   80.2, -999.0
05-01-2022, 00:04:53,    264,    0.1,   -0.8,   0.00,   0.00, 1005.1,   80.0, -999.0
05-01-2022, 00:05:02,    270,    1.6,   -0.9,   0.00,   0.00, 1005.2,   80.0, -999.0
05-01-2022, 00:05:12,    314,    1.0,   -0.8,   0.00,   0.00, 1005.1,   80.2, -999.0
05-01-2022, 00:05:23,    301,    0.9,   -0.8,   0.00,   0.00, 1005.2,   80.1, -999.0
05-01-2022, 00:05:33,    297,    1.5,   -0.8,   0.00,   0.00, 1005.2,   80.0, -999.0
05-01-2022, 00:05:42,    281,    1.0,   -0.8,   0.00,   0.00, 1005.2,   80.0, -999.0
05-01-2022, 00:05:52,    309,    3.1,   -0.7,   0.00,   0.00, 1005.2,   79.9, -999.0
05-01-2022, 00:06:02,    270,    2.0,   -0.7,   0.00,   0.00, 1005.2,   79.9, -999.0
05-01-2022, 00:06:12,    288,    0.2,   -0.8,   0.00,   0.00, 1005.1,   79.5, -999.0
05-01-2022, 00:06:22,    290,    0.7,   -0.7,   0.00,   0.00, 1005.1,   79.5, -999.0
05-01-2022, 00:06:32,    289,    0.3,   -0.7,   0.00,   0.00, 1005.1,   79.4, -999.0
05-01-2022, 00:06:42,    254,    0.1,   -0.7,   0.00,   0.00, 1005.1,   79.3, -999.0
05-01-2022, 00:06:52,    255,    0.0,   -0.8,   0.00,   0.00, 1005.0,   79.0, -999.0
05-01-2022, 00:07:02,    256,    0.2,   -0.8,   0.00,   0.00, 1005.1,   79.0, -999.0
05-01-2022, 00:07:12,    301,    1.2,   -0.8,   0.00,   0.00, 1005.2,   79.2, -999.0
05-01-2022, 00:07:22,    294,    1.5,   -0.6,   0.00,   0.00, 1005.1,   79.3, -999.0
05-01-2022, 00:07:32,    249,    1.4,   -0.6,   0.00,   0.00, 1005.2,   79.2, -999.0
05-01-2022, 00:07:42,    266,    0.5,   -0.7,   0.00,   0.00, 1005.1,   79.1, -999.0
05-01-2022, 00:07:52,    266,    0.7,   -0.7,   0.00,   0.00, 1005.1,   78.8, -999.0
05-01-2022, 00:08:02,    281,    0.5,   -0.7,   0.00,   0.00, 1005.1,   78.9, -999.0
05-01-2022, 00:08:11,    270,    1.7,   -0.7,   0.00,   0.00, 1005.1,   78.9, -999.0
05-01-2022, 00:08:22,    264,    1.3,   -0.6,   0.00,   0.00, 1005.1,   78.9, -999.0
05-01-2022, 00:08:31,    250,    0.2,   -0.7,   0.00,   0.00, 1005.1,   78.7, -999.0
05-01-2022, 00:08:41,    251,    0.0,   -0.8,   0.00,   0.00, 1005.0,   78.5, -999.0
05-01-2022, 00:08:51,    251,    0.1,   -0.7,   0.00,   0.00, 1005.1,   78.6, -999.0
05-01-2022, 00:09:01,    251,    0.0,   -0.7,   0.00,   0.00, 1005.1,   78.4, -999.0
05-01-2022, 00:09:11,    251,    0.0,   -0.9,   0.00,   0.00, 1005.0,   78.3, -999.0
05-01-2022, 00:09:21,    252,    0.0,   -0.8,   0.00,   0.00, 1005.0,   78.1, -999.0
05-01-2022, 00:09:31,    281,    0.0,   -0.9,   0.00,   0.00, 1005.0,   78.0, -999.0
05-01-2022, 00:09:41,    269,    0.4,   -0.7,   0.00,   0.00, 1005.1,   78.2, -999.0
05-01-2022, 00:09:51,    307,    1.3,   -0.7,   0.00,   0.00, 1005.2,   78.5, -999.0
05-01-2022, 00:10:01,    242,    2.1,   -0.6,   0.00,   0.00, 1005.2,   78.4, -999.0
05-01-2022, 00:10:11,    244,    0.8,   -0.7,   0.00,   0.00, 1005.1,   78.4, -999.0
05-01-2022, 00:10:21,    305,    0.3,   -0.7,   0.00,   0.00, 1005.2,   78.3, -999.0
05-01-2022, 00:10:31,    237,    0.9,   -0.6,   0.00,   0.00, 1005.2,   78.4, -999.0
05-01-2022, 00:10:41,    259,    1.1,   -0.6,   0.00,   0.00, 1005.2,   78.3, -999.0
05-01-2022, 00:10:51,    260,    0.0,   -0.8,   0.00,   0.00, 1005.1,   77.8, -999.0
05-01-2022, 00:11:01,    260,    0.0,   -0.7,   0.00,   0.00, 1005.1,   78.0, -999.0
05-01-2022, 00:11:11,    286,    0.1,   -0.7,   0.00,   0.00, 1005.2,   78.0, -999.0
05-01-2022, 00:11:20,    283,    0.0,   -0.7,   0.00,   0.00, 1005.1,   77.9, -999.0
05-01-2022, 00:11:31,    283,    0.0,   -0.8,   0.00,   0.00, 1005.1,   77.7, -999.0
05-01-2022, 00:11:40,    271,    0.9,   -0.6,   0.00,   0.00, 1005.2,   77.9, -999.0
05-01-2022, 00:11:50,    312,    1.4,   -0.6,   0.00,   0.00, 1005.3,   78.0, -999.0
05-01-2022, 00:12:00,    300,    0.8,   -0.6,   0.00,   0.00, 1005.2,   77.8, -999.0
05-01-2022, 00:12:10,    291,    1.1,   -0.5,   0.00,   0.00, 1005.3,   77.9, -999.0
05-01-2022, 00:12:20,    290,    0.1,   -0.6,   0.00,   0.00, 1005.2,   77.8, -999.0
05-01-2022, 00:12:30,    261,    0.7,   -0.6,   0.00,   0.00, 1005.2,   77.6, -999.0
05-01-2022, 00:12:40,    277,    1.1,   -0.5,   0.00,   0.00, 1005.2,   78.0, -999.0
05-01-2022, 00:12:50,    268,    1.0,   -0.5,   0.00,   0.00, 1005.3,   77.8, -999.0
05-01-2022, 00:13:00,    323,    0.9,   -0.5,   0.00,   0.00, 1005.2,   77.7, -999.0
05-01-2022, 00:13:10,    290,    1.4,   -0.5,   0.00,   0.00, 1005.3,   77.7, -999.0
05-01-2022, 00:13:20,    258,    0.8,   -0.6,   0.00,   0.00, 1005.2,   77.6, -999.0
05-01-2022, 00:13:30,    314,    1.5,   -0.5,   0.00,   0.00, 1005.3,   77.5, -999.0
05-01-2022, 00:13:40,    282,    0.3,   -0.6,   0.00,   0.00, 1005.2,   77.4, -999.0
05-01-2022, 00:13:50,    300,    2.2,   -0.5,   0.00,   0.00, 1005.3,   77.4, -999.0
05-01-2022, 00:14:00,    299,    1.4,   -0.5,   0.00,   0.00, 1005.2,   77.4, -999.0
05-01-2022, 00:14:10,    291,    0.7,   -0.5,   0.00,   0.00, 1005.3,   77.4, -999.0
05-01-2022, 00:14:19,    289,    2.1,   -0.4,   0.00,   0.00, 1005.3,   77.5, -999.0
05-01-2022, 00:14:30,    246,    1.7,   -0.5,   0.00,   0.00, 1005.2,   77.1, -999.0
05-01-2022, 00:14:40,    241,    1.5,   -0.5,   0.00,   0.00, 1005.2,   77.1, -999.0
05-01-2022, 00:14:49,    326,    1.4,   -0.4,   0.00,   0.00, 1005.3,   77.1, -999.0
05-01-2022, 00:14:59,    333,    2.7,   -0.5,   0.00,   0.00, 1005.2,   77.0, -999.0
05-01-2022, 00:15:10,    265,    1.4,   -0.5,   0.00,   0.00, 1005.3,   76.9, -999.0
05-01-2022, 00:15:19,    264,    0.2,   -0.5,   0.00,   0.00, 1005.2,   76.7, -999.0
05-01-2022, 00:15:29,    250,    0.7,   -0.5,   0.00,   0.00, 1005.2,   76.7, -999.0
05-01-2022, 00:15:39,    312,    1.6,   -0.5,   0.00,   0.00, 1005.3,   76.8, -999.0
05-01-2022, 00:15:49,    286,    1.2,   -0.5,   0.00,   0.00, 1005.3,   76.8, -999.0
05-01-2022, 00:15:59,    294,    1.3,   -0.5,   0.00,   0.00, 1005.3,   76.8, -999.0
05-01-2022, 00:16:09,    279,    0.6,   -0.5,   0.00,   0.00, 1005.2,   76.7, -999.0
05-01-2022, 00:16:19,    301,    0.9,   -0.4,   0.00,   0.00, 1005.3,   76.7, -999.0
05-01-2022, 00:16:29,    288,    1.2,   -0.5,   0.00,   0.00, 1005.2,   76.7, -999.0
05-01-2022, 00:16:39,    259,    1.2,   -0.5,   0.00,   0.00, 1005.3,   76.7, -999.0
05-01-2022, 00:16:49,    319,    1.2,   -0.4,   0.00,   0.00, 1005.3,   76.7, -999.0
05-01-2022, 00:16:59,    294,    0.5,   -0.4,   0.00,   0.00, 1005.2,   76.7, -999.0
05-01-2022, 00:17:09,    294,    1.0,   -0.5,   0.00,   0.00, 1005.3,   76.6, -999.0
05-01-2022, 00:17:19,    270,    1.3,   -0.5,   0.00,   0.00, 1005.3,   76.6, -999.0
05-01-2022, 00:17:28,    271,    1.6,   -0.5,   0.00,   0.00, 1005.2,   76.6, -999.0
05-01-2022, 00:17:39,    271,    0.4,   -0.5,   0.00,   0.00, 1005.1,   76.5, -999.0
05-01-2022, 00:17:49,    252,    1.4,   -0.5,   0.00,   0.00, 1005.2,   76.5, -999.0
05-01-2022, 00:17:58,    299,    0.4,   -0.5,   0.00,   0.00, 1005.2,   76.4, -999.0
05-01-2022, 00:18:08,    278,    0.4,   -0.5,   0.00,   0.00, 1005.1,   76.4, -999.0
05-01-2022, 00:18:19,    312,    1.2,   -0.5,   0.00,   0.00, 1005.1,   76.4, -999.0
05-01-2022, 00:18:28,    298,    1.1,   -0.4,   0.00,   0.00, 1005.2,   76.4, -999.0
05-01-2022, 00:18:38,    261,    2.8,   -0.4,   0.00,   0.00, 1005.2,   76.3, -999.0
05-01-2022, 00:18:48,    296,    3.1,   -0.5,   0.00,   0.00, 1005.2,   76.4, -999.0
05-01-2022, 00:18:58,    313,    2.2,   -0.5,   0.00,   0.00, 1005.2,   76.4, -999.0
05-01-2022, 00:19:08,    314,    1.3,   -0.5,   0.00,   0.00, 1005.1,   76.4, -999.0
05-01-2022, 00:19:18,    308,    1.5,   -0.4,   0.00,   0.00, 1005.1,   76.3, -999.0
05-01-2022, 00:19:28,    298,    1.4,   -0.4,   0.00,   0.00, 1005.1,   76.3, -999.0
05-01-2022, 00:19:38,    289,    0.8,   -0.5,   0.00,   0.00, 1005.1,   76.3, -999.0
05-01-2022, 00:19:48,    283,    1.7,   -0.4,   0.00,   0.00, 1005.1,   76.4, -999.0
05-01-2022, 00:19:58,    236,    1.8,   -0.4,   0.00,   0.00, 1005.1,   76.3, -999.0
05-01-2022, 00:20:08,    295,    0.5,   -0.5,   0.00,   0.00, 1005.1,   76.1, -999.0
05-01-2022, 00:20:18,    270,    1.4,   -0.5,   0.00,   0.00, 1005.1,   76.3, -999.0
05-01-2022, 00:20:30,    285,    1.9,   -0.4,   0.00,   0.00, 1005.1,   76.3, -999.0
05-01-2022, 00:20:38,    243,    1.2,   -0.4,   0.00,   0.00, 1005.1,   76.2, -999.0
05-01-2022, 00:20:48,    243,    0.6,   -0.4,   0.00,   0.00, 1005.1,   76.1, -999.0
05-01-2022, 00:20:58,    280,    0.0,   -0.6,   0.00,   0.00, 1005.0,   75.9, -999.0
05-01-2022, 00:21:07,    281,    0.0,   -0.6,   0.00,   0.00, 1005.0,   75.9, -999.0
05-01-2022, 00:21:18,    280,    0.0,   -0.5,   0.00,   0.00, 1005.0,   75.8, -999.0
05-01-2022, 00:21:28,    281,    0.0,   -0.6,   0.00,   0.00, 1005.0,   75.8, -999.0
05-01-2022, 00:21:37,    235,    0.9,   -0.5,   0.00,   0.00, 1005.1,   76.2, -999.0
05-01-2022, 00:21:47,    248,    0.8,   -0.4,   0.00,   0.00, 1005.1,   76.1, -999.0
05-01-2022, 00:21:57,    292,    0.6,   -0.5,   0.00,   0.00, 1005.1,   76.0, -999.0
05-01-2022, 00:22:07,    292,    0.2,   -0.5,   0.00,   0.00, 1005.0,   75.9, -999.0
05-01-2022, 00:22:17,    266,    0.2,   -0.5,   0.00,   0.00, 1005.0,   76.0, -999.0
05-01-2022, 00:22:27,    331,    1.5,   -0.4,   0.00,   0.00, 1005.1,   76.2, -999.0
05-01-2022, 00:22:37,    277,    0.9,   -0.4,   0.00,   0.00, 1005.1,   76.1, -999.0
05-01-2022, 00:22:47,    318,    0.9,   -0.5,   0.00,   0.00, 1005.1,   76.1, -999.0
05-01-2022, 00:22:57,    325,    1.1,   -0.4,   0.00,   0.00, 1005.1,   76.1, -999.0
05-01-2022, 00:23:07,    251,    1.0,   -0.4,   0.00,   0.00, 1005.1,   76.2, -999.0
05-01-2022, 00:23:17,    279,    2.0,   -0.4,   0.00,   0.00, 1005.1,   76.2, -999.0
05-01-2022, 00:23:27,    258,    1.0,   -0.4,   0.00,   0.00, 1005.1,   76.2, -999.0
05-01-2022, 00:23:37,    247,    1.5,   -0.4,   0.00,   0.00, 1005.1,   76.2, -999.0
05-01-2022, 00:23:47,    235,    1.5,   -0.4,   0.00,   0.00, 1005.1,   76.3, -999.0
05-01-2022, 00:23:57,    276,    0.9,   -0.4,   0.00,   0.00, 1005.1,   76.2, -999.0
05-01-2022, 00:24:07,    260,    1.2,   -0.4,   0.00,   0.00, 1005.1,   76.2, -999.0
05-01-2022, 00:24:16,    264,    2.6,   -0.5,   0.00,   0.00, 1005.1,   76.3, -999.0
05-01-2022, 00:24:27,    267,    1.5,   -0.4,   0.00,   0.00, 1005.1,   76.2, -999.0
05-01-2022, 00:24:36,    266,    0.1,   -0.5,   0.00,   0.00, 1005.0,   76.0, -999.0
05-01-2022, 00:24:46,    267,    0.3,   -0.5,   0.00,   0.00, 1005.1,   76.0, -999.0
05-01-2022, 00:24:57,    254,    2.2,   -0.4,   0.00,   0.00, 1005.1,   76.2, -999.0
05-01-2022, 00:25:06,    280,    1.7,   -0.4,   0.00,   0.00, 1005.2,   76.2, -999.0
05-01-2022, 00:25:16,    266,    2.6,   -0.4,   0.00,   0.00, 1005.2,   76.1, -999.0
05-01-2022, 00:25:26,    301,    0.7,   -0.4,   0.00,   0.00, 1005.1,   76.1, -999.0
05-01-2022, 00:25:36,    300,    0.1,   -0.5,   0.00,   0.00, 1005.1,   75.9, -999.0
05-01-2022, 00:25:46,    282,    2.4,   -0.5,   0.00,   0.00, 1005.2,   76.3, -999.0
05-01-2022, 00:25:56,    305,    2.4,   -0.4,   0.00,   0.00, 1005.2,   76.3, -999.0
05-01-2022, 00:26:06,    277,    1.5,   -0.4,   0.00,   0.00, 1005.2,   76.2, -999.0
05-01-2022, 00:26:16,    311,    0.7,   -0.4,   0.00,   0.00, 1005.2,   76.2, -999.0
05-01-2022, 00:26:26,    304,    1.1,   -0.4,   0.00,   0.00, 1005.2,   76.2, -999.0
05-01-2022, 00:26:36,    306,    0.9,   -0.3,   0.00,   0.00, 1005.3,   76.2, -999.0
05-01-2022, 00:26:46,    303,    1.0,   -0.4,   0.00,   0.00, 1005.3,   76.2, -999.0
05-01-2022, 00:26:56,    297,    0.9,   -0.3,   0.00,   0.00, 1005.3,   76.0, -999.0
05-01-2022, 00:27:06,    295,    1.1,   -0.3,   0.00,   0.00, 1005.2,   75.9, -999.0
05-01-2022, 00:27:16,    259,    1.7,   -0.3,   0.00,   0.00, 1005.2,   75.9, -999.0
05-01-2022, 00:27:26,    266,    2.8,   -0.4,   0.00,   0.00, 1005.3,   75.9, -999.0
05-01-2022, 00:27:36,    262,    1.7,   -0.4,   0.00,   0.00, 1005.3,   75.8, -999.0
05-01-2022, 00:27:45,    261,    0.8,   -0.4,   0.00,   0.00, 1005.3,   75.8, -999.0
05-01-2022, 00:27:55,    261,    0.0,   -0.4,   0.00,   0.00, 1005.2,   75.5, -999.0
05-01-2022, 00:28:06,    292,    0.0,   -0.4,   0.00,   0.00, 1005.2,   75.6, -999.0
05-01-2022, 00:28:15,    288,    0.4,   -0.4,   0.00,   0.00, 1005.2,   75.8, -999.0
05-01-2022, 00:28:25,    253,    1.2,   -0.4,   0.00,   0.00, 1005.2,   75.8, -999.0
05-01-2022, 00:28:35,    345,    1.1,   -0.4,   0.00,   0.00, 1005.3,   76.0, -999.0
05-01-2022, 00:28:45,    296,    3.3,   -0.4,   0.00,   0.00, 1005.3,   75.9, -999.0
05-01-2022, 00:28:55,    257,    2.3,   -0.3,   0.00,   0.00, 1005.3,   76.0, -999.0
05-01-2022, 00:29:05,    261,    2.7,   -0.3,   0.00,   0.00, 1005.3,   76.0, -999.0
05-01-2022, 00:29:15,    268,    2.5,   -0.3,   0.00,   0.00, 1005.3,   75.9, -999.0
05-01-2022, 00:29:25,    275,    1.4,   -0.3,   0.00,   0.00, 1005.3,   75.9, -999.0
05-01-2022, 00:29:35,    287,    0.8,   -0.3,   0.00,   0.00, 1005.2,   75.8, -999.0
05-01-2022, 00:29:45,    276,    1.6,   -0.3,   0.00,   0.00, 1005.3,   75.9, -999.0
05-01-2022, 00:29:55,    276,    0.6,   -0.3,   0.00,   0.00, 1005.3,   75.9, -999.0
05-01-2022, 00:30:05,    260,    0.0,   -0.3,   0.00,   0.00, 1005.2,   75.6, -999.0
05-01-2022, 00:30:15,    265,    2.9,   -0.3,   0.00,   0.00, 1005.3,   75.8, -999.0
05-01-2022, 00:30:25,    247,    2.9,   -0.3,   0.00,   0.00, 1005.3,   75.7, -999.0
05-01-2022, 00:30:35,    276,    1.8,   -0.3,   0.00,   0.00, 1005.3,   75.8, -999.0
05-01-2022, 00:30:45,    263,    1.1,   -0.3,   0.00,   0.00, 1005.3,   75.7, -999.0
05-01-2022, 00:30:54,    263,    0.4,   -0.3,   0.00,   0.00, 1005.3,   75.6, -999.0
05-01-2022, 00:31:04,    263,    0.0,   -0.4,   0.00,   0.00, 1005.2,   75.3, -999.0
05-01-2022, 00:31:15,    263,    0.0,   -0.4,   0.00,   0.00, 1005.1,   75.4, -999.0
05-01-2022, 00:31:24,    264,    0.0,   -0.4,   0.00,   0.00, 1005.2,   75.4, -999.0
05-01-2022, 00:31:34,    264,    0.0,   -0.3,   0.00,   0.00, 1005.3,   75.5, -999.0
05-01-2022, 00:31:45,    264,    0.0,   -0.4,   0.00,   0.00, 1005.2,   75.3, -999.0
05-01-2022, 00:31:54,    282,    0.5,   -0.3,   0.00,   0.00, 1005.3,   75.6, -999.0
05-01-2022, 00:32:04,    300,    1.6,   -0.3,   0.00,   0.00, 1005.4,   75.7, -999.0
05-01-2022, 00:32:14,    299,    0.4,   -0.3,   0.00,   0.00, 1005.3,   75.7, -999.0
05-01-2022, 00:32:24,    300,    0.0,   -0.4,   0.00,   0.00, 1005.2,   75.3, -999.0
05-01-2022, 00:32:34,    301,    0.2,   -0.4,   0.00,   0.00, 1005.3,   75.4, -999.0
05-01-2022, 00:32:44,    237,    1.5,   -0.2,   0.00,   0.00, 1005.3,   75.6, -999.0
05-01-2022, 00:32:54,    252,    0.2,   -0.3,   0.00,   0.00, 1005.3,   75.4, -999.0
05-01-2022, 00:33:04,    305,    0.8,   -0.2,   0.00,   0.00, 1005.4,   75.6, -999.0
05-01-2022, 00:33:14,    271,    0.6,   -0.4,   0.00,   0.00, 1005.3,   75.4, -999.0
05-01-2022, 00:33:24,    279,    0.6,   -0.4,   0.00,   0.00, 1005.3,   75.4, -999.0
05-01-2022, 00:33:33,    275,    1.7,   -0.3,   0.00,   0.00, 1005.3,   75.5, -999.0
05-01-2022, 00:33:44,    280,    0.8,   -0.3,   0.00,   0.00, 1005.3,   75.5, -999.0
05-01-2022, 00:33:54,    297,    0.4,   -0.3,   0.00,   0.00, 1005.2,   75.4, -999.0
05-01-2022, 00:34:03,    300,    1.2,   -0.3,   0.00,   0.00, 1005.3,   75.6, -999.0
05-01-2022, 00:34:14,    295,    1.8,   -0.2,   0.00,   0.00, 1005.3,   75.6, -999.0
05-01-2022, 00:34:24,    258,    1.1,   -0.2,   0.00,   0.00, 1005.3,   75.5, -999.0
05-01-2022, 00:34:33,    259,    0.1,   -0.3,   0.00,   0.00, 1005.2,   75.2, -999.0
05-01-2022, 00:34:43,    260,    0.0,   -0.4,   0.00,   0.00, 1005.2,   75.0, -999.0
05-01-2022, 00:34:54,    258,    0.1,   -0.4,   0.00,   0.00, 1005.3,   75.2, -999.0
05-01-2022, 00:35:03,    269,    1.6,   -0.2,   0.00,   0.00, 1005.4,   75.4, -999.0
05-01-2022, 00:35:13,    286,    1.7,   -0.2,   0.00,   0.00, 1005.3,   75.4, -999.0
05-01-2022, 00:35:23,    298,    1.6,   -0.3,   0.00,   0.00, 1005.4,   75.4, -999.0
05-01-2022, 00:35:33,    280,    2.0,   -0.2,   0.00,   0.00, 1005.4,   75.4, -999.0
05-01-2022, 00:35:43,    296,    2.1,   -0.2,   0.00,   0.00, 1005.4,   75.4, -999.0
05-01-2022, 00:35:53,    295,    1.2,   -0.1,   0.00,   0.00, 1005.4,   75.4, -999.0
05-01-2022, 00:36:03,    298,    0.4,   -0.2,   0.00,   0.00, 1005.3,   75.3, -999.0
05-01-2022, 00:36:13,    285,    0.9,   -0.2,   0.00,   0.00, 1005.3,   75.4, -999.0
05-01-2022, 00:36:23,    298,    1.6,   -0.2,   0.00,   0.00, 1005.3,   75.3, -999.0
05-01-2022, 00:36:33,    277,    0.4,   -0.2,   0.00,   0.00, 1005.3,   75.2, -999.0
05-01-2022, 00:36:43,    277,    0.0,   -0.3,   0.00,   0.00, 1005.2,   74.8, -999.0
05-01-2022, 00:36:53,    277,    0.0,   -0.3,   0.00,   0.00, 1005.3,   74.8, -999.0
05-01-2022, 00:37:03,    277,    0.2,   -0.3,   0.00,   0.00, 1005.3,   74.9, -999.0
05-01-2022, 00:37:12,    282,    0.8,   -0.2,   0.00,   0.00, 1005.3,   75.0, -999.0
05-01-2022, 00:37:23,    298,    2.1,   -0.2,   0.00,   0.00, 1005.4,   75.1, -999.0
05-01-2022, 00:37:33,    233,    1.7,   -0.3,   0.00,   0.00, 1005.4,   75.1, -999.0
05-01-2022, 00:37:42,    243,    0.7,   -0.2,   0.00,   0.00, 1005.3,   75.2, -999.0
05-01-2022, 00:37:53,    243,    0.0,   -0.3,   0.00,   0.00, 1005.2,   74.8, -999.0
05-01-2022, 00:38:02,    260,    0.3,   -0.3,   0.00,   0.00, 1005.3,   75.0, -999.0
05-01-2022, 00:38:12,    255,    1.9,   -0.2,   0.00,   0.00, 1005.3,   75.1, -999.0
05-01-2022, 00:38:22,    280,    2.2,   -0.2,   0.00,   0.00, 1005.4,   75.1, -999.0
05-01-2022, 00:38:32,    285,    2.5,   -0.2,   0.00,   0.00, 1005.3,   75.1, -999.0
05-01-2022, 00:38:42,    284,    0.7,   -0.2,   0.00,   0.00, 1005.3,   75.2, -999.0
05-01-2022, 00:38:52,    271,    1.6,   -0.2,   0.00,   0.00, 1005.3,   75.0, -999.0
05-01-2022, 00:39:02,    250,    1.8,   -0.3,   0.00,   0.00, 1005.3,   75.1, -999.0
05-01-2022, 00:39:12,    253,    0.6,   -0.3,   0.00,   0.00, 1005.3,   75.0, -999.0
05-01-2022, 00:39:22,    285,    0.2,   -0.3,   0.00,   0.00, 1005.3,   74.9, -999.0
05-01-2022, 00:39:32,    284,    0.5,   -0.2,   0.00,   0.00, 1005.4,   75.0, -999.0
05-01-2022, 00:39:42,    283,    0.0,   -0.3,   0.00,   0.00, 1005.3,   74.8, -999.0
05-01-2022, 00:39:52,    284,    0.0,   -0.4,   0.00,   0.00, 1005.2,   74.7, -999.0
05-01-2022, 00:40:02,    284,    0.0,   -0.3,   0.00,   0.00, 1005.3,   74.8, -999.0
05-01-2022, 00:40:12,    286,    1.1,   -0.3,   0.00,   0.00, 1005.4,   75.1, -999.0
05-01-2022, 00:40:22,    250,    2.1,   -0.3,   0.00,   0.00, 1005.4,   75.2, -999.0
05-01-2022, 00:40:32,    305,    2.7,   -0.2,   0.00,   0.00, 1005.4,   75.2, -999.0
05-01-2022, 00:40:41,    305,    2.4,   -0.2,   0.00,   0.00, 1005.4,   75.3, -999.0
05-01-2022, 00:40:51,    282,    1.5,   -0.2,   0.00,   0.00, 1005.4,   75.4, -999.0
05-01-2022, 00:41:02,    253,    1.8,   -0.2,   0.00,   0.00, 1005.4,   75.3, -999.0
05-01-2022, 00:41:11,    261,    0.6,   -0.2,   0.00,   0.00, 1005.3,   75.1, -999.0
05-01-2022, 00:41:21,    261,    0.0,   -0.3,   0.00,   0.00, 1005.2,   74.7, -999.0
05-01-2022, 00:41:31,    271,    0.5,   -0.3,   0.00,   0.00, 1005.3,   74.8, -999.0
05-01-2022, 00:41:41,    266,    2.4,   -0.2,   0.00,   0.00, 1005.4,   75.1, -999.0
05-01-2022, 00:41:51,    254,    1.6,   -0.2,   0.00,   0.00, 1005.4,   75.1, -999.0
05-01-2022, 00:42:01,    254,    0.1,   -0.2,   0.00,   0.00, 1005.3,   74.8, -999.0
05-01-2022, 00:42:11,    320,    0.2,   -0.5,   0.00,   0.00, 1005.3,   74.8, -999.0
05-01-2022, 00:42:21,    319,    0.0,   -0.3,   0.00,   0.00, 1005.2,   74.7, -999.0
05-01-2022, 00:42:31,    317,    0.7,   -0.3,   0.00,   0.00, 1005.3,   74.9, -999.0
05-01-2022, 00:42:41,    275,    0.2,   -0.2,   0.00,   0.00, 1005.2,   74.8, -999.0
05-01-2022, 00:42:51,    275,    0.1,   -0.2,   0.00,   0.00, 1005.3,   74.9, -999.0
05-01-2022, 00:43:01,    276,    0.3,   -0.2,   0.00,   0.00, 1005.3,   74.9, -999.0
05-01-2022, 00:43:11,    277,    0.0,   -0.3,   0.00,   0.00, 1005.1,   74.6, -999.0
05-01-2022, 00:43:21,    301,    0.1,   -0.3,   0.00,   0.00, 1005.2,   74.8, -999.0
05-01-2022, 00:43:31,    301,    0.0,   -0.4,   0.00,   0.00, 1005.1,   74.7, -999.0
05-01-2022, 00:43:41,    284,    0.0,   -0.4,   0.00,   0.00, 1005.2,   74.6, -999.0
05-01-2022, 00:43:51,    283,    0.2,   -0.3,   0.00,   0.00, 1005.3,   74.9, -999.0
05-01-2022, 00:44:00,    283,    0.0,   -0.4,   0.00,   0.00, 1005.2,   74.7, -999.0
05-01-2022, 00:44:11,    283,    0.0,   -0.3,   0.00,   0.00, 1005.2,   74.7, -999.0
05-01-2022, 00:44:20,    260,    0.8,   -0.3,   0.00,   0.00, 1005.2,   75.0, -999.0
05-01-2022, 00:44:30,    260,    0.1,   -0.3,   0.00,   0.00, 1005.2,   74.7, -999.0
05-01-2022, 00:44:41,    273,    0.0,   -0.3,   0.00,   0.00, 1005.1,   74.7, -999.0
05-01-2022, 00:44:50,    262,    0.2,   -0.4,   0.00,   0.00, 1005.2,   74.8, -999.0
05-01-2022, 00:45:00,    272,    1.0,   -0.3,   0.00,   0.00, 1005.3,   75.0, -999.0
05-01-2022, 00:45:10,    261,    3.5,   -0.3,   0.00,   0.00, 1005.3,   75.0, -999.0
05-01-2022, 00:45:20,    244,    3.5,   -0.2,   0.00,   0.00, 1005.3,   75.1, -999.0
05-01-2022, 00:45:30,    253,    1.7,   -0.3,   0.00,   0.00, 1005.3,   75.1, -999.0
05-01-2022, 00:45:40,    254,    0.2,   -0.3,   0.00,   0.00, 1005.2,   75.0, -999.0
05-01-2022, 00:45:50,    254,    0.2,   -0.3,   0.00,   0.00, 1005.2,   75.0, -999.0
05-01-2022, 00:46:00,    258,    0.1,   -0.3,   0.00,   0.00, 1005.2,   75.1, -999.0
05-01-2022, 00:46:10,    266,    1.3,   -0.3,   0.00,   0.00, 1005.3,   75.1, -999.0
05-01-2022, 00:46:20,    275,    0.8,   -0.3,   0.00,   0.00, 1005.2,   75.1, -999.0
05-01-2022, 00:46:30,    266,    2.0,   -0.2,   0.00,   0.00, 1005.3,   75.1, -999.0
05-01-2022, 00:46:40,    296,    1.0,   -0.2,   0.00,   0.00, 1005.3,   75.2, -999.0